Regional Weather Roundup
Issued by NWS

Home | Current Version | Previous Version | Graphics & Text | Print | Product List | Glossary On
Versions: 1 2 3 4 5 6 7 8 9 10 11 12 13 14 15 16 17 18 19 20 21 22 23 24 25 26 27 28 29 30 31 32 33 34 35 36 37 38 39 40 41 42 43 44 45 46 47 48 49 50
000
ASUS43 KDTX 070910
RWRMI
MICHIGAN HOURLY REGIONAL WEATHER ROUNDUP
NATIONAL WEATHER SERVICE DETROIT/PONTIAC MI
500 AM EDT TUE JUL 07 2015

NOTE: "FAIR" INDICATES FEW OR NO CLOUDS BELOW 12,000 FEET WITH NO
SIGNIFICANT WEATHER AND/OR OBSTRUCTION TO VISIBILITY.

MIZ047>049-052>055-059>063-066>070-074>076-081>083-071000-
SOUTHEAST LOWER MICHIGAN

CITY           SKY/WX    TMP DP  RH WIND       PRES   REMARKS
ADRIAN         CLOUDY    72  68  87 SW9       29.88F
ALMA           CLOUDY    71  69  96 S5        29.82F
ANN ARBOR      CLOUDY    71  67  87 SW6       29.87F FOG
BAD AXE        CLOUDY    71  64  76 S7        29.82F
CARO           CLOUDY    75  67  77 SW7       29.82S
DETROIT CITY   CLOUDY    74  66  76 SW12      29.87F
DETROIT        CLOUDY    73  66  78 S8        29.88S
FLINT          CLOUDY    76  67  73 SW9       29.83
GROSSE ILE     CLOUDY    73  68  83 S12       29.87S
HILLSDALE      CLOUDY    73  71  94 SW8       29.89S
HOWELL         CLOUDY    73  67  83 S5        29.85F

CITY           SKY/WX    TMP DP  RH WIND       PRES   REMARKS
JACKSON        CLOUDY    74  68  81 SW9       29.86F
LAMBERTVILLE   CLOUDY    74  67  78 SW8       29.89S
LANSING        CLOUDY    75  69  81 W5        29.84F
LAPEER         MOCLDY    73  65  74 S6        29.84F
MASON          CLOUDY    72  67  84 S3        29.85S
MONROE         CLOUDY    73  68  84 S6        29.87S
MT. CLEMENS    MOCLDY    72  67  84 S8        29.84F
PONTIAC        CLOUDY    73  67  81 S10       29.85F
PORT HOPE        N/A     73  64  73 VRB6      29.79F
PORT HURON     CLOUDY    72  66  83 S6        29.86S
TRI CITIES     CLOUDY    75  68  78 SW10      29.81F
MIDLAND        LGT RAIN  72  69  92 SW6       29.79F
TROY           CLOUDY    74  66  75 SW7       29.88S
SAGINAW HB     CLOUDY    73  66  78 SW9       29.81F
$$
MIZ043>046-050>051-056>058-064>065-071>073-077>080-071000-
SOUTHWEST LOWER MICHIGAN

CITY           SKY/WX    TMP DP  RH WIND       PRES   REMARKS
BATTLE CREEK   LGT RAIN  72  68  87 SW8       29.86R FOG
BENTON HARBOR  CLOUDY    71  69  93 S6        29.83F
BIG RAPIDS     RAIN      69  67  92 SW3       29.80S
COLDWATER      CLOUDY    74  69  83 SW7       29.86F
FREMONT        MOCLDY    67  67  98 S6        29.80S
HOLLAND        CLOUDY    72  66  81 SW10      29.82F
GRAND RAPIDS   CLOUDY    70  69  97 SW6       29.83F
IONIA          MOCLDY    71  70  96 SW6       29.83S
KALAMAZOO      CLOUDY    71  68  90 SW7       29.85F
LUDINGTON      RAIN      58  56  92 N10G16    29.85R
MARSHALL       CLOUDY    74  71  89 SW6       29.85S
MOUNT PLEASANT CLOUDY    71  69  92 SW7       29.79F
MUSKEGON       CLOUDY    65  63  93 SW10      29.81S
SOUTH HAVEN    CLOUDY    72  68  87 SW6       29.82F
$$
MIZ016>042-071000-
NORTHERN LOWER MICHIGAN

CITY           SKY/WX    TMP DP  RH WIND       PRES   REMARKS
ALPENA         LGT RAIN  66  64  93 NW15G22   29.77R
BEAVER ISLAND  CLOUDY    55  52  90 NW8       29.86S
BELLAIRE       DRIZZLE   59  56  92 N6        29.85S
CADILLAC       RAIN      57  55  94 N10G16    29.83F
CHARLEVOIX     CLOUDY    58  55  89 NW9       29.89R
FRANKFORT      RAIN      58  51  79 N8        29.88S
GAYLORD        RAIN      58  58 100 VRB6      29.83S FOG
GRAYLING       DRIZZLE   58  57  94 NW9       29.83R
HARBOR SPRINGS CLOUDY    59  56  92 CALM      29.83S FOG
HOUGHTON LAKE  CLOUDY    61  59  93 NW7       29.82R
MANISTEE       CLOUDY   N/A N/A N/A N9        29.86S
OSCODA         CLOUDY    72  68  89 SW10      29.77S
PELLSTON       CLOUDY    59  56  89 NW10      29.84R FOG
ROGERS CITY    RAIN      60  59  96 NW8       29.80S
TRAVERSE CITY  RAIN      59  56  89 NW9       29.86R FOG
$$
MIZ007>008-015-071000-
EASTERN UPPER MICHIGAN

CITY           SKY/WX    TMP DP  RH WIND       PRES   REMARKS
KINROSS        CLOUDY    55  54  94 NW17G24   29.79F
MACKINAC ISLAN CLOUDY    57  57 100 NW9       29.82R FOG
NEWBERRY       CLOUDY    49  48  97 NW10G17   29.85F
S. S. MARIE    CLOUDY    55  53  93 NW9       29.79F FOG
MUNISING         N/A     54  46  74 NW17      29.90S
$$
MIZ004>006-011>014-085-071000-
CENTRAL UPPER MICHIGAN

CITY           SKY/WX    TMP DP  RH WIND       PRES   REMARKS
MANISTIQUE     PTCLDY    49  46  88 NW8G17    29.87S
ESCANABA       CLEAR     52  48  87 N9        29.91S
MENOMINEE      CLOUDY    55  48  76 N7        29.93R
SAWYER-GWINN   CLEAR     49  45  86 N9        29.94S
$$
MIZ001>003-009>011-084-071000-
WESTERN UPPER MICHIGAN

CITY           SKY/WX    TMP DP  RH WIND       PRES   REMARKS
IRON MOUNTAIN  MOCLDY    53  47  79 N10       29.94S
HOUGHTON       CLOUDY    50  45  83 N12       29.97S
COPPER HARBOR    N/A     47  43  86 N9        29.95S
IRONWOOD       CLOUDY    52  48  87 N5        30.01S
$$

ABBREVIATIONS USED IN REMARKS
   TC - TEMPERATURE IN CELSIUS
  WCI - WIND CHILL INDEX
   HX - HEAT INDEX
  VSB - VISIBILITY



USA.gov is the U.S. government's official web portal to all federal, state and local government web resources and services.